Flag for Spain Weather past 2 weeks in Valencia, Spain

Now
77 °F

Passing clouds.


Feels Like: 79 °F
Forecast: 67 / 76 °F
Wind: 10 mph from Southeast

Location: Valencia / Aeropuerto

Current Time: Sep 5, 2015 at 5:19:43 PM

Latest Report: Sep 5, 2015 at 4:30 PM


Visibility: N/A

Pressure: 30.09 "Hg

Humidity: 54%

Dew point: 59 °F

Location of ValenciaLocation

Historic Weather in Valencia — Graph

°F

Valencia temperature yesterday

Maximum temperature yesterday: 79 °F (at 2:30 PM)
Minimum temperature yesterday: 70 °F (at 5:30 PM)
Average temperature yesterday: 73 °F

Past Weeks' High & Low Weather Summary

 TemperatureHumidityPressure
High93 °F (Aug 23, 6:00 PM)94% (Aug 31, 9:30 PM)30.12 "Hg (Aug 31, 9:30 PM)
Low63 °F (Sep 5, 8:00 AM)21% (Aug 23, 6:00 PM)29.71 "Hg (Aug 23, 6:00 PM)
Average79 °F66%29.98 "Hg
* Reported Aug 21 4:00 PM — Sep 5 4:00 PM, Valencia, Weather by CustomWeather, © 2015

Note: Actual official high and low records may vary slightly from our data, if they occured in-between our weather recording intervals... More about our weather records

Advertising

Valencia weather history for previous 24 hours

 ConditionsComfort  
Time TempWeatherWind HumidityBarometerVisibility
4:00 PM
Sat, Sep 5
77 °FPassing clouds.9 mph54%30.09 "HgN/A
3:30 PM77 °FPassing clouds.7 mph54%30.09 "HgN/A
3:00 PM77 °FPassing clouds.6 mph54%30.09 "HgN/A
2:30 PM77 °FPassing clouds.5 mph51%30.09 "HgN/A
2:00 PM77 °FScattered clouds.6 mph51%30.12 "HgN/A
1:30 PM75 °FPartly sunny.3 mph54%30.12 "HgN/A
1:00 PM75 °FPartly sunny.2 mph54%30.12 "HgN/A
12:30 PM75 °FPartly sunny.2 mph57%30.12 "HgN/A
12:00 PM75 °FPartly sunny.1 mph57%30.12 "HgN/A
11:30 AM73 °FPartly sunny.No wind61%30.12 "HgN/A
11:00 AM73 °FPartly sunny.No wind61%30.12 "HgN/A
10:30 AM72 °FPartly sunny.No wind65%30.09 "HgN/A
10:00 AM70 °FPartly sunny.5 mph73%30.09 "HgN/A
9:30 AM68 °FPartly sunny.6 mph78%30.09 "HgN/A
9:00 AM66 °FPassing clouds.2 mph83%30.09 "HgN/A
8:30 AM64 °FPassing clouds.2 mph88%30.07 "HgN/A
8:00 AM63 °FPassing clouds.2 mph94%30.07 "HgN/A
7:30 AM64 °FPassing clouds.2 mph88%30.07 "HgN/A
7:00 AM64 °FPassing clouds.1 mph88%30.04 "HgN/A
6:30 AM64 °FPassing clouds.2 mph88%30.04 "HgN/A
6:00 AM64 °FPassing clouds.2 mph88%30.04 "HgN/A
5:30 AM64 °FPassing clouds.2 mph94%30.04 "HgN/A
5:00 AM64 °FPassing clouds.1 mph94%30.04 "HgN/A
4:30 AM66 °FPassing clouds.2 mph88%30.04 "HgN/A
4:00 AM66 °FPassing clouds.No wind88%30.04 "HgN/A
3:30 AM66 °FPassing clouds.2 mph88%30.04 "HgN/A
3:00 AM66 °FPassing clouds.2 mph88%30.04 "HgN/A
2:30 AM66 °FPassing clouds.3 mph88%30.04 "HgN/A
2:00 AM68 °FPassing clouds.2 mph83%30.04 "HgN/A
1:30 AM70 °FPassing clouds.2 mph78%30.04 "HgN/A
1:00 AM70 °FPassing clouds.2 mph78%30.04 "HgN/A
12:30 AM70 °FPassing clouds.2 mph73%30.04 "HgN/A
12:00 AM70 °FPartly cloudy.5 mph73%30.04 "HgN/A
11:30 PM
Fri, Sep 4
70 °FPartly cloudy.6 mph78%30.04 "HgN/A
11:00 PM70 °FPartly cloudy.6 mph78%30.04 "HgN/A
10:30 PM70 °FPassing clouds.7 mph78%30.04 "HgN/A
10:00 PM70 °FPassing clouds.7 mph78%30.01 "HgN/A
9:30 PM70 °FPartly cloudy.8 mph78%30.01 "HgN/A
9:00 PM70 °FPartly sunny.8 mph78%29.98 "HgN/A
8:30 PM70 °FPartly sunny.9 mph83%29.98 "HgN/A
8:00 PM70 °FScattered clouds.10 mph83%29.98 "HgN/A
7:30 PM70 °FScattered clouds.15 mph83%29.95 "HgN/A
7:00 PM70 °FPartly sunny.10 mph78%29.95 "HgN/A
6:30 PM70 °FPartly sunny.13 mph83%29.95 "HgN/A
6:00 PM70 °FPartly sunny.13 mph88%29.95 "HgN/A
5:30 PM70 °FLight rain. Partly sunny.14 mph83%29.95 "HgN/A
5:00 PM72 °FSprinkles. Scattered clouds.13 mph78%29.95 "HgN/A
Weather by CustomWeather, © 2015

See weather overviewHow to use our weather pages